[[{"header":{"parameterUnit":"m.s-1","parameterCategory":1,"la1":30.2991,"la2":30.254,"lo1":-89.0895,"lo2":-89.0444,"dy":0.0017,"dx":0.0017,"nx":28,"ny":28,"refTime":"2025-01-14T09:00:00:Z","depth":0,"parameterNumber":2,"parameterNumberName":"U-component_of_WINDS"},"data":[0,0,0,0,0,0,0,0,0,0,0,0,0,0,0,0,0,0,0,0,0,0,0,0,0,0,0,0,0,0,0,0,0,0,0,0,0,0,0,0,0,0,0,0,0,0,0,0,0,0,0,0,0,0,0,0,0,0,-3.2653,-3.2653,0,-3.269,-3.269,-3.2691,-3.2595,-3.2592,-3.259,-3.2587,-3.2627,-3.2631,-3.2635,0,0,0,0,0,0,0,0,0,0,0,0,0,-3.2503,-3.2506,-3.2653,-3.2653,-3.2654,-3.269,-3.269,-3.2691,-3.2596,-3.2592,-3.2589,-3.2585,-3.2626,-3.263,-3.2635,0,0,0,0,0,0,0,0,0,0,0,0,0,-3.2557,-3.2507,-3.2653,-3.2611,-3.2607,-3.269,-3.269,-3.2691,-3.2597,-3.2592,-3.2588,-3.2584,-3.2624,-3.263,-3.2636,-3.2761,0,0,-3.2653,-3.2656,0,0,0,0,0,0,0,0,-3.2554,-3.2562,-3.2617,-3.2614,-3.261,-3.2633,-3.2652,-3.2714,-3.2598,-3.2601,-3.2587,-3.2581,-3.2633,-3.2638,-3.2655,-3.2763,-3.2765,-3.2654,-3.2657,-3.266,-3.2662,0,0,0,0,0,0,0,-3.255,-3.256,-3.2667,-3.2617,-3.2614,-3.2591,-3.2594,-3.2663,-3.2642,-3.26,-3.2593,-3.2599,-3.263,-3.2649,-3.2655,-3.2765,-3.2654,-3.2659,-3.2662,-3.2665,-3.2979,-3.2983,0,0,0,0,0,0,-3.2551,-3.2558,-3.2666,-3.2669,-3.257,-3.2597,-3.26,-3.2631,-3.2641,-3.2638,-3.2603,-3.2594,-3.2642,-3.2648,-3.2656,-3.2804,-3.266,-3.2665,-3.2669,-3.2974,-3.298,-3.2985,0,0,0,0,0,0,-3.2549,-3.2562,-3.2665,-3.2611,-3.2623,-3.2604,-3.2639,-3.2634,-3.2652,-3.2642,-3.2638,-3.2626,-3.2638,-3.2648,-3.2736,-3.2805,-3.2668,-3.2673,-3.2968,-3.2976,-3.2983,-3.3102,0,0,0,0,0,0,-3.2545,-3.2562,-3.2609,-3.2613,-3.2626,-3.2744,-3.2643,-3.2638,-3.2662,-3.2652,-3.2663,-3.2661,-3.2636,-3.2727,-3.2741,-3.281,-3.2678,-3.2962,-3.2972,-3.298,-3.3092,-3.3113,-3.313,0,0,0,0,0,-3.254,-3.2641,-3.2612,-3.2625,-3.2684,-3.2748,-3.2755,-3.2723,-3.2668,-3.2716,-3.2709,-3.266,-3.2794,-3.2737,-3.2752,-3.2824,-3.2958,-3.2969,-3.298,-3.3083,-3.3109,-3.313,0,0,0,0,0,0,-3.2647,-3.2641,-3.2608,-3.2714,-3.2732,-3.2732,-3.2791,-3.2751,-3.2786,-3.2775,-3.2734,-3.2737,-3.2833,-3.2836,-3.2773,-3.2946,-3.2867,-3.2881,-3.294,-3.2964,-3.2983,-3.2981,-3.2682,0,0,0,0,0,-3.2682,-3.2734,-3.2726,-3.2821,-3.2831,-3.281,-3.2836,-3.281,-3.2827,-3.2835,-3.2835,-3.2854,-3.29,-3.2932,-3.2974,-3.3091,-3.3093,-3.3147,-3.3166,-3.3182,-3.3196,-3.3259,-3.3284,-3.3021,-3.3021,-3.3021,0,0,-3.2757,-3.2761,-3.2796,-3.2842,-3.2853,-3.2908,-3.2817,-3.2879,-3.292,-3.2844,-3.2928,-3.2928,-3.2947,-3.305,-3.3096,-3.3056,-3.3269,-3.3196,-3.3209,-3.3214,-3.3273,-3.3298,-3.332,-3.3029,-3.3027,-3.3026,0,0,-3.2922,-3.2929,-3.3009,-3.3022,-3.3039,-3.3023,-3.3043,-3.3048,-3.3046,-3.3128,-3.3073,-3.3121,-3.3201,-3.3217,-3.3236,-3.3406,-3.3363,-3.342,-3.3522,-3.3584,-3.3605,-3.3623,-3.3685,-3.3708,-3.3434,-3.3434,-3.3434,0,-3.3014,-3.3094,-3.3055,-3.3122,-3.3144,-3.3077,-3.3158,-3.3172,-3.3203,-3.322,-3.3174,-3.3274,-3.3282,-3.3389,-3.343,-3.3447,-3.3468,-3.342,-3.3604,-3.3622,-3.3639,-3.3698,-3.3721,-3.3441,-3.344,-3.344,-3.3439,0,-3.3206,-3.3263,-3.3325,-3.3356,-3.3385,-3.3458,-3.3432,-3.3466,-3.3436,-3.3426,-3.3511,-3.3518,-3.3561,-3.3583,-3.3556,-3.3687,-3.3662,-3.3611,-3.3531,-3.3672,-3.3727,-3.3749,-3.3451,-3.3449,-3.3447,-3.3445,0,0,-3.3443,-3.345,-3.3474,-3.3487,-3.35,-3.3543,-3.3613,-3.3654,-3.3685,-3.3708,-3.3767,-3.3836,-3.3789,-3.381,-3.3783,-3.3837,-3.3974,-3.378,-3.378,-3.3818,-3.412,-3.416,-3.4187,-3.3944,-3.3948,-3.3951,-3.4119,0,-3.3607,-3.3727,-3.3694,-3.3815,-3.3867,-3.3803,-3.3864,-3.388,-3.3872,-3.3915,-3.3906,-3.3957,-3.389,-3.3902,-3.3953,-3.3947,-3.4034,-3.3933,-3.4,-3.4003,-3.4,-3.4215,-3.4258,-3.4416,-3.414,-3.4144,-3.4146,0,-3.3816,-3.3846,-3.3972,-3.3977,-3.3997,-3.4053,-3.4088,-3.413,-3.4146,-3.4136,-3.416,-3.4122,-3.4191,-3.4109,-3.4206,-3.4138,-3.4163,-3.4164,-3.4169,-3.4176,-3.4085,-3.4231,-3.4466,-3.4491,-3.418,-3.4177,-3.4175,0,-3.3979,-3.405,-3.4135,-3.4148,-3.4155,-3.4196,-3.4201,-3.4212,-3.4239,-3.4269,-3.4286,-3.4324,-3.4346,-3.4377,-3.435,-3.4293,-3.4452,-3.4367,-3.4447,-3.4448,-3.4486,-3.4485,-3.4731,-3.4498,-3.4498,-3.4497,-3.4497,0,-3.4167,-3.4248,-3.4208,-3.4261,-3.4349,-3.4309,-3.4398,-3.4395,-3.4406,-3.4457,-3.4403,-3.4453,-3.4414,-3.446,-3.4439,-3.4524,-3.4533,-3.4528,-3.4523,-3.4535,-3.4536,-3.4553,-3.4542,-3.4504,-3.4502,-3.4501,-3.45,0,-3.4365,-3.4342,-3.443,-3.4429,-3.4431,-3.4496,-3.4495,-3.4544,-3.4531,-3.4597,-3.461,-3.4591,-3.4642,-3.4618,-3.4672,-3.4658,-3.4767,-3.4745,-3.4762,-3.4758,-3.484,-3.4834,-3.5108,-3.5143,-3.4885,-3.4888,-3.489,0,-3.4489,-3.4549,-3.4554,-3.4584,-3.4592,-3.4642,-3.4668,-3.4631,-3.4661,-3.4684,-3.473,-3.4777,-3.4813,-3.4898,-3.489,-3.4931,-3.4911,-3.5004,-3.4917,-3.4928,-3.4915,-3.4913,-3.492,-3.5023,-3.5026,-3.5028,-3.503,0,-3.4711,-3.4696,-3.4736,-3.4773,-3.4806,-3.4833,-3.4855,-3.4883,-3.4847,-3.4883,-3.4935,-3.4963,-3.5017,-3.5065,-3.5101,-3.5106,-3.5064,-3.5057,-3.5079,-3.5093,-3.5101,-3.51,-3.4813,-3.5052,-3.505,-3.5048,-3.5047,-3.5046,-3.4877,-3.4928,-3.4939,-3.4986,-3.4998,-3.502,-3.5066,-3.5059,-3.5101,-3.5142,-3.5118,-3.5179,-3.5193,-3.5236,-3.5248,-3.5295,-3.5259,-3.5289,-3.5297,-3.5306,-3.5318,-3.5091,-3.5301,-3.5301,-3.53,-3.53,-3.5299,0,-3.5099,-3.5102,-3.5145,-3.5178,-3.5215,-3.5169,-3.5191,-3.5225,-3.5279,-3.5295,-3.5331,-3.5391,-3.5437,-3.5431,-3.5473,-3.5512,-3.5494,-3.5525,-3.5523,-3.5525,-3.5347,-3.5326,-3.5539,-3.5539,-3.5539,-3.5539,-3.5539,-3.5539,-3.5219,-3.5302,-3.5289,-3.5378,-3.5381,-3.544,-3.5457,-3.5477,-3.549,-3.5559,-3.5597,-3.5592,-3.5599,-3.5641,-3.5681,-3.5678,-3.5697,-3.5737,-3.5727,-3.5561,-3.5538,-3.5515,-3.5495,-3.574,-3.5741,-3.5901,-3.5903,-3.5904]},{"header":{"parameterUnit":"m.s-1","parameterCategory":1,"la1":30.2991,"la2":30.254,"lo1":-89.0895,"lo2":-89.0444,"dy":0.0017,"dx":0.0017,"nx":28,"ny":28,"refTime":"2025-01-14T09:00:00:Z","depth":0,"parameterNumber":3,"parameterNumberName":"V-component_of_WINDS"},"data":[0,0,0,0,0,0,0,0,0,0,0,0,0,0,0,0,0,0,0,0,0,0,0,0,0,0,0,0,0,0,0,0,0,0,0,0,0,0,0,0,0,0,0,0,0,0,0,0,0,0,0,0,0,0,0,0,0,0,-4.3158,-4.3158,0,-4.3207,-4.3207,-4.3208,-4.3152,-4.315,-4.3148,-4.3146,-4.3194,-4.3197,-4.32,0,0,0,0,0,0,0,0,0,0,0,0,0,-4.3012,-4.3015,-4.3158,-4.3158,-4.3159,-4.3207,-4.3207,-4.3208,-4.3153,-4.315,-4.3148,-4.3145,-4.3192,-4.3196,-4.32,0,0,0,0,0,0,0,0,0,0,0,0,0,-4.307,-4.3016,-4.3158,-4.3137,-4.3136,-4.3207,-4.3207,-4.3208,-4.3153,-4.315,-4.3147,-4.3144,-4.3191,-4.3196,-4.3201,-4.3293,0,0,-4.3215,-4.3217,0,0,0,0,0,0,0,0,-4.3066,-4.3075,-4.314,-4.3139,-4.3137,-4.317,-4.3173,-4.3237,-4.3154,-4.3147,-4.3146,-4.3143,-4.3188,-4.3193,-4.3209,-4.3295,-4.3297,-4.3216,-4.3219,-4.3221,-4.3222,0,0,0,0,0,0,0,-4.3063,-4.3073,-4.3177,-4.314,-4.3139,-4.3124,-4.3129,-4.3185,-4.3184,-4.3147,-4.3143,-4.315,-4.3187,-4.3205,-4.321,-4.3298,-4.3216,-4.322,-4.3223,-4.3225,-4.3462,-4.3465,0,0,0,0,0,0,-4.3061,-4.307,-4.3175,-4.3178,-4.3094,-4.3129,-4.3135,-4.3163,-4.3183,-4.3184,-4.3152,-4.3147,-4.3198,-4.3204,-4.3211,-4.3321,-4.3221,-4.3225,-4.3228,-4.3459,-4.3463,-4.3466,0,0,0,0,0,0,-4.3058,-4.3071,-4.3173,-4.3123,-4.3135,-4.3135,-4.3167,-4.3165,-4.3183,-4.3188,-4.3187,-4.3171,-4.3196,-4.3204,-4.3273,-4.3322,-4.3227,-4.3232,-4.3455,-4.346,-4.3465,-4.3541,0,0,0,0,0,0,-4.3055,-4.3071,-4.3107,-4.3124,-4.3138,-4.3236,-4.317,-4.3169,-4.3192,-4.3185,-4.3205,-4.3205,-4.3194,-4.3266,-4.3278,-4.3327,-4.3236,-4.345,-4.3457,-4.3463,-4.3534,-4.3548,-4.356,0,0,0,0,0,-4.305,-4.3126,-4.3109,-4.3122,-4.3183,-4.3239,-4.3247,-4.3233,-4.3196,-4.3232,-4.3235,-4.3204,-4.3314,-4.3274,-4.3287,-4.3337,-4.3447,-4.3455,-4.3462,-4.3528,-4.3545,-4.356,0,0,0,0,0,0,-4.3113,-4.3128,-4.3109,-4.3194,-4.3216,-4.323,-4.3274,-4.3252,-4.3284,-4.3276,-4.3257,-4.3262,-4.3335,-4.3343,-4.3298,-4.3427,-4.3374,-4.3385,-4.342,-4.3436,-4.3449,-4.3446,-4.324,0,0,0,0,0,-4.3137,-4.3182,-4.3192,-4.3265,-4.3278,-4.3274,-4.3298,-4.3286,-4.3307,-4.3316,-4.3324,-4.3345,-4.3384,-4.341,-4.3447,-4.3535,-4.3538,-4.3576,-4.3588,-4.3599,-4.3609,-4.3655,-4.3672,-4.3492,-4.3492,-4.3491,0,0,-4.3186,-4.32,-4.323,-4.3279,-4.3294,-4.334,-4.3282,-4.3334,-4.3368,-4.3323,-4.339,-4.3396,-4.3418,-4.3497,-4.3532,-4.3505,-4.3659,-4.3609,-4.3617,-4.3621,-4.3665,-4.3682,-4.3697,-4.3497,-4.3496,-4.3495,0,0,-4.3301,-4.3316,-4.3379,-4.3396,-4.342,-4.3418,-4.3433,-4.345,-4.3453,-4.3519,-4.3487,-4.3526,-4.3594,-4.3611,-4.3629,-4.3749,-4.3723,-4.3761,-4.3829,-4.3875,-4.3889,-4.3902,-4.3945,-4.3961,-4.3771,-4.3771,-4.3771,0,-4.3359,-4.3429,-4.3414,-4.3468,-4.349,-4.3453,-4.3516,-4.3532,-4.3567,-4.3583,-4.3553,-4.3637,-4.365,-4.3732,-4.3761,-4.3777,-4.3793,-4.376,-4.3889,-4.3901,-4.3912,-4.3953,-4.397,-4.3775,-4.3775,-4.3774,-4.3774,0,-4.35,-4.3548,-4.3596,-4.3632,-4.3659,-4.3717,-4.371,-4.3739,-4.3724,-4.3724,-4.3791,-4.3804,-4.3843,-4.3861,-4.3847,-4.3941,-4.3924,-4.3892,-4.3838,-4.3935,-4.3973,-4.3988,-4.3782,-4.378,-4.3779,-4.3778,0,0,-4.3656,-4.3683,-4.3701,-4.3716,-4.3741,-4.3777,-4.3833,-4.3872,-4.3897,-4.3922,-4.3968,-4.4026,-4.3996,-4.4016,-4.4003,-4.4043,-4.4138,-4.4006,-4.4006,-4.403,-4.4243,-4.4268,-4.4286,-4.412,-4.4123,-4.4125,-4.4241,0,-4.3771,-4.387,-4.3858,-4.3952,-4.3996,-4.3961,-4.4009,-4.4029,-4.403,-4.4067,-4.4067,-4.4109,-4.4066,-4.4078,-4.4116,-4.4119,-4.418,-4.411,-4.4162,-4.4164,-4.4159,-4.4306,-4.4333,-4.4442,-4.4256,-4.4258,-4.426,0,-4.3919,-4.3951,-4.405,-4.4067,-4.4085,-4.413,-4.4164,-4.4199,-4.422,-4.4218,-4.4241,-4.422,-4.4275,-4.422,-4.4294,-4.4247,-4.4267,-4.4271,-4.4275,-4.428,-4.4219,-4.4316,-4.4476,-4.4493,-4.4284,-4.4282,-4.428,0,-4.4025,-4.4091,-4.4159,-4.4174,-4.4195,-4.4227,-4.4237,-4.4255,-4.4279,-4.4308,-4.4323,-4.4358,-4.4377,-4.4404,-4.4393,-4.4354,-4.447,-4.4414,-4.4469,-4.447,-4.4496,-4.4495,-4.4663,-4.4508,-4.4508,-4.4508,-4.4507,0,-4.4155,-4.4217,-4.4207,-4.4249,-4.4317,-4.4301,-4.4368,-4.4374,-4.439,-4.4431,-4.4402,-4.4441,-4.4424,-4.4461,-4.4453,-4.4516,-4.4525,-4.4524,-4.4521,-4.4527,-4.4528,-4.4541,-4.4534,-4.4512,-4.4511,-4.451,-4.451,0,-4.4284,-4.428,-4.4352,-4.4366,-4.4371,-4.4421,-4.4433,-4.4471,-4.447,-4.4523,-4.4534,-4.4532,-4.4574,-4.4566,-4.4613,-4.4607,-4.4687,-4.4674,-4.468,-4.4677,-4.4734,-4.4729,-4.4917,-4.4941,-4.477,-4.4772,-4.4773,0,-4.4369,-4.4416,-4.4436,-4.4462,-4.4475,-4.4517,-4.4542,-4.4527,-4.4553,-4.458,-4.4616,-4.4656,-4.4688,-4.4758,-4.4759,-4.4795,-4.4783,-4.4846,-4.4788,-4.4793,-4.4785,-4.4782,-4.4787,-4.4858,-4.486,-4.4862,-4.4863,0,-4.4518,-4.4514,-4.4551,-4.4588,-4.4618,-4.4645,-4.467,-4.4693,-4.468,-4.4711,-4.4755,-4.478,-4.4828,-4.4868,-4.4901,-4.491,-4.4885,-4.4881,-4.4896,-4.4904,-4.4906,-4.4906,-4.4713,-4.4877,-4.4876,-4.4875,-4.4874,-4.4874,-4.4628,-4.4668,-4.4689,-4.4731,-4.4748,-4.4772,-4.4809,-4.4812,-4.4849,-4.4888,-4.4877,-4.4927,-4.4945,-4.4987,-4.5,-4.5038,-4.5014,-4.5035,-4.5041,-4.5047,-4.5054,-4.4899,-4.5043,-4.5043,-4.5043,-4.5042,-4.5042,0,-4.4777,-4.4788,-4.4827,-4.4863,-4.4896,-4.487,-4.4896,-4.4925,-4.497,-4.4989,-4.5021,-4.5072,-4.511,-4.5115,-4.5151,-4.5181,-4.517,-4.5191,-4.5189,-4.5192,-4.5073,-4.5057,-4.5199,-4.5199,-4.5199,-4.5199,-4.5199,-4.5199,-4.4859,-4.4925,-4.4923,-4.4998,-4.5008,-4.5058,-4.5075,-4.5096,-4.5112,-4.517,-4.5203,-4.5205,-4.5219,-4.5256,-4.529,-4.529,-4.5305,-4.5331,-4.5327,-4.5216,-4.52,-4.5185,-4.517,-4.5334,-4.5334,-4.5442,-4.5443,-4.5444]}]]